Location: Unspecified
(50.7693°N, 0.0000°E)
Time: 17:47:47
(UTC+00:00)

Transit 4A - Pass Details

Date: 01 July 2019
Orbit: 862 x 982 km, 66.8° (Epoch: 17 July)

Event Time Altitude Azimuth Distance (km) Brightness Sun altitude
Rises 12:16:48 0° 317° (NW) 3,697 10.8 62.2°
Reaches altitude 10° 12:19:51 10° 329° (NNW) 2,745 10.3 62.2°
Maximum altitude 12:25:14 27° 26° (NNE) 1,777 9.4 62.0°
Drops below altitude 10° 12:30:32 10° 83° (E) 2,702 10.4 61.9°
Sets 12:33:30 0° 96° (E) 3,629 10.9 61.7°
